EW5612 Weather Reports


Display with metric or nautical units.
time (UTC)temp
F
wind
direction
speed
MPH
gust
MPH
rain 1hr
in
rain 24hr
in
rain mn
in
humidity
%
barometer
mb
20260903031704 84 106 0.0 0.0 0.00 0.00 0.00 73 1011.7
20260903031204 84 112 0.0 1.0 0.00 0.00 0.00 72 1011.7
20260903030704 85 100 0.0 0.0 0.00 0.00 0.00 71 1011.5
20260903030203 85 114 0.0 0.0 0.00 0.00 0.00 70 1011.4
20260903025704 85 105 0.0 0.0 0.00 0.00 0.00 69 1011.3
20260903025204 85 114 0.0 0.0 0.00 0.00 0.00 68 1011.2
20260903024704 86 52 0.0 2.0 0.00 0.00 0.00 67 1011.1
20260903024203 86 128 0.0 2.0 0.00 0.00 0.00 66 1010.9
20260903023703 86 114 0.0 0.0 0.00 0.00 0.00 66 1010.9
20260903023203 87 116 0.0 0.0 0.00 0.00 0.00 65 1010.8
20260903022203 87 139 0.0 0.0 0.00 0.00 0.00 63 1010.5
20260903021703 88 103 0.0 0.0 0.00 0.00 0.00 62 1010.4
20260903021204 88 114 0.0 0.0 0.00 0.00 0.00 59 1010.4
20260903015703 89 134 0.0 0.0 0.00 0.00 0.00 58 1009.7
20260903015204 89 52 0.0 0.0 0.00 0.00 0.00 58 1009.7
20260903012204 91 1 0.0 8.0 0.00 0.00 0.00 53 1009.6
20260903011704 91 17 0.0 2.0 0.00 0.00 0.00 52 1009.5
20260903011204 91 65 0.0 1.0 0.00 0.00 0.00 52 1009.6
20260903010704 92 81 0.0 2.0 0.00 0.00 0.00 51 1009.6
20260903010204 92 7 1.0 7.0 0.00 0.00 0.00 50 1009.4
20260903005703 93 308 0.0 1.0 0.00 0.00 0.00 49 1009.3
20260903004703 95 0 1.0 8.0 0.00 0.00 0.00 47 1009.3
20260903004204 96 291 2.0 6.0 0.00 0.00 0.00 46 1009.2
20260903003703 97 15 3.0 7.0 0.00 0.00 0.00 44 1009.2
20260903003204 98 5 0.0 3.0 0.00 0.00 0.00 42 1009.1
20260903002704 98 237 0.0 0.0 0.00 0.00 0.00 41 1009.0
20260903002204 98 222 0.0 0.0 0.00 0.00 0.00 41 1008.9
20260903001204 99 180 0.0 0.0 0.00 0.00 0.00 40 1008.9
20260903000703 99 180 0.0 0.0 0.00 0.00 0.00 39 1008.8
20260903000204 99 180 0.0 0.0 0.00 0.00 0.00 39 1008.8
20260902235703 100 180 0.0 0.0 0.00 0.00 0.00 38 1008.8
20260902235204 100 180 0.0 0.0 0.00 0.00 0.00 38 1008.8
20260902234704 100 180 0.0 0.0 0.00 0.00 0.00 36 1008.9
20260902234204 100 180 0.0 0.0 0.00 0.00 0.00 37 1008.7
20260902233704 101 180 0.0 0.0 0.00 0.00 0.00 35 1008.7
20260902233203 101 180 0.0 0.0 0.00 0.00 0.00 35 1008.8
20260902232704 101 180 0.0 0.0 0.00 0.00 0.00 35 1008.9
20260902232204 101 180 0.0 0.0 0.00 0.00 0.00 35 1008.9
20260902231704 101 180 0.0 0.0 0.00 0.00 0.00 34 1008.9
20260902231203 101 180 0.0 0.0 0.00 0.00 0.00 34 1008.9
20260902230704 101 188 0.0 0.0 0.00 0.00 0.00 34 1008.9
20260902230204 101 199 0.0 0.0 0.00 0.00 0.00 35 1008.9
20260902225704 102 198 0.0 0.0 0.00 0.00 0.00 35 1008.8
20260902225203 101 220 0.0 0.0 0.00 0.00 0.00 37 1008.8
20260902224704 101 179 0.0 0.0 0.00 0.00 0.00 37 1008.8
20260902224204 102 196 0.0 0.0 0.00 0.00 0.00 37 1008.8
20260902223204 103 195 0.0 0.0 0.00 0.00 0.00 36 1008.8
20260902222703 103 248 0.0 0.0 0.00 0.00 0.00 36 1008.8
20260902222203 103 166 0.0 0.0 0.00 0.00 0.00 35 1008.9
20260902220704 103 267 0.0 0.0 0.00 0.00 0.00 37 1008.9
20260902220204 103 202 0.0 0.0 0.00 0.00 0.00 36 1009.0
20260902215704 103 204 0.0 0.0 0.00 0.00 0.00 36 1009.0
20260902215203 103 320 0.0 0.0 0.00 0.00 0.00 36 1009.0
20260902214204 103 201 0.0 0.0 0.00 0.00 0.00 36 1009.1
20260902213704 103 283 0.0 0.0 0.00 0.00 0.00 37 1009.2
20260902213204 103 170 0.0 0.0 0.00 0.00 0.00 36 1009.2
20260902212704 103 141 0.0 0.0 0.00 0.00 0.00 36 1009.2
20260902212204 103 118 0.0 0.0 0.00 0.00 0.00 36 1009.3
20260902211703 103 187 0.0 0.0 0.00 0.00 0.00 35 1009.4
20260902211204 103 186 0.0 0.0 0.00 0.00 0.00 35 1009.5
20260902210704 103 189 0.0 0.0 0.00 0.00 0.00 36 1009.6
20260902210204 103 180 0.0 0.0 0.00 0.00 0.00 37 1009.6
20260902205703 103 291 0.0 0.0 0.00 0.00 0.00 36 1009.7
20260902205203 103 187 0.0 0.0 0.00 0.00 0.00 36 1009.7
20260902204703 103 186 0.0 0.0 0.00 0.00 0.00 35 1009.8
20260902204204 103 182 0.0 0.0 0.00 0.00 0.00 36 1009.8
20260902203204 102 15 0.0 0.0 0.00 0.00 0.00 36 1010.0
20260902202704 102 61 0.0 0.0 0.00 0.00 0.00 37 1010.1
20260902202203 102 195 0.0 0.0 0.00 0.00 0.00 37 1010.2
20260902201704 102 161 0.0 0.0 0.00 0.00 0.00 37 1010.3
20260902201204 101 183 0.0 0.0 0.00 0.00 0.00 38 1010.4
20260902195703 100 230 0.0 0.0 0.00 0.00 0.00 41 1010.7
20260902195204 100 214 0.0 0.0 0.00 0.00 0.00 41 1010.8
20260902194703 100 312 0.0 0.0 0.00 0.00 0.00 42 1010.9
20260902194203 99 187 0.0 0.0 0.00 0.00 0.00 42 1011.0
20260902193704 99 60 0.0 0.0 0.00 0.00 0.00 43 1011.0
20260902193204 99 190 0.0 0.0 0.00 0.00 0.00 42 1011.1
20260902192703 98 194 0.0 0.0 0.00 0.00 0.00 44 1011.2
20260902191704 97 233 0.0 0.0 0.00 0.00 0.00 45 1011.5
20260902191203 97 268 0.0 0.0 0.00 0.00 0.00 46 1011.6
20260902190704 97 270 0.0 0.0 0.00 0.00 0.00 45 1011.6
20260902190204 97 284 0.0 0.0 0.00 0.00 0.00 44 1011.7
20260902185704 98 197 0.0 0.0 0.00 0.00 0.00 44 1011.8
20260902185205 98 197 0.0 0.0 0.00 0.00 0.00 44 1011.8
20260902184704 98 197 0.0 0.0 0.00 0.00 0.00 44 1011.9
20260902184203 98 201 0.0 0.0 0.00 0.00 0.00 43 1011.9
20260902183704 98 119 0.0 0.0 0.00 0.00 0.00 43 1012.1
20260902183204 98 108 0.0 0.0 0.00 0.00 0.00 43 1012.1
20260902182703 98 203 0.0 0.0 0.00 0.00 0.00 42 1012.2
20260902182203 98 185 0.0 0.0 0.00 0.00 0.00 44 1012.3
20260902181704 98 207 0.0 0.0 0.00 0.00 0.00 45 1012.4
20260902181204 98 28 0.0 0.0 0.00 0.00 0.00 44 1012.5
20260902180204 97 168 0.0 0.0 0.00 0.00 0.00 46 1012.9
20260902175703 97 134 0.0 0.0 0.00 0.00 0.00 47 1013.0
20260902174704 96 171 0.0 0.0 0.00 0.00 0.00 49 1013.1
20260902174203 96 218 0.0 0.0 0.00 0.00 0.00 49 1013.2
20260902173203 96 183 0.0 0.0 0.00 0.00 0.00 50 1013.4
20260902172703 95 215 0.0 0.0 0.00 0.00 0.00 50 1013.4
20260902172204 95 204 0.0 0.0 0.00 0.00 0.00 51 1013.5
20260902171704 95 228 0.0 0.0 0.00 0.00 0.00 52 1013.6
20260902170704 94 146 0.0 0.0 0.00 0.00 0.00 52 1013.7
20260902165703 93 242 0.0 0.0 0.00 0.00 0.00 56 1013.9
20260902165204 93 189 0.0 0.0 0.00 0.00 0.00 56 1013.9
20260902164703 93 185 0.0 0.0 0.00 0.00 0.00 58 1013.9
20260902164204 92 189 0.0 0.0 0.00 0.00 0.00 60 1014.0
20260902163703 92 163 0.0 0.0 0.00 0.00 0.00 61 1014.0
20260902163203 91 145 0.0 0.0 0.00 0.00 0.00 61 1014.0
20260902162703 91 175 0.0 0.0 0.00 0.00 0.00 62 1014.1
20260902162203 91 179 0.0 0.0 0.00 0.00 0.00 62 1014.1
20260902161704 90 197 0.0 0.0 0.00 0.00 0.00 64 1014.2
20260902160704 89 180 0.0 1.0 0.00 0.00 0.00 64 1014.2
20260902160203 89 222 0.0 0.0 0.00 0.00 0.00 67 1014.2
20260902155704 89 223 0.0 0.0 0.00 0.00 0.00 68 1014.2
20260902155203 88 183 0.0 0.0 0.00 0.00 0.00 67 1014.2
20260902154704 88 230 0.0 0.0 0.00 0.00 0.00 70 1014.2
20260902154204 87 170 0.0 0.0 0.00 0.00 0.00 72 1014.1
20260902153704 87 186 0.0 0.0 0.00 0.00 0.00 72 1014.1
20260902152704 86 207 0.0 0.0 0.00 0.00 0.00 73 1014.2
20260902152204 86 174 0.0 0.0 0.00 0.00 0.00 74 1014.2
20260902151704 85 294 0.0 0.0 0.00 0.00 0.00 75 1014.2
20260902150703 85 185 0.0 0.0 0.00 0.00 0.00 77 1014.2
20260902150203 85 191 0.0 0.0 0.00 0.00 0.00 78 1014.2
20260902145703 84 172 0.0 0.0 0.00 0.00 0.00 79 1014.2
20260902145204 84 161 0.0 0.0 0.00 0.00 0.00 79 1014.2
20260902144703 83 186 0.0 0.0 0.00 0.00 0.00 80 1014.2
20260902144204 83 167 0.0 0.0 0.00 0.00 0.00 81 1014.2
20260902143704 83 171 0.0 0.0 0.00 0.00 0.00 83 1014.2
20260902143204 82 205 0.0 0.0 0.00 0.00 0.00 84 1014.3
20260902142705 82 170 0.0 0.0 0.00 0.00 0.00 84 1014.3
20260902142203 81 158 0.0 0.0 0.00 0.00 0.00 85 1014.4
20260902141704 81 203 0.0 0.0 0.00 0.00 0.00 86 1014.4
20260902141203 80 187 0.0 0.0 0.00 0.00 0.00 86 1014.4
20260902140704 80 188 0.0 0.0 0.00 0.00 0.00 87 1014.3